Vorticity
4 4 5 4 5 5 4 5 4 5 5 5 5 5 5 5 4 5 5 5 5 4 4 4 4 5 5 4 5 6 6 6 6 6 6 6 6 6 7 7 7 7 8 8 8 9 9 10 11 10 9 8 8 8 8 7 7 7 7 7 6 5 6 8 8 8 8 9 9 9 8 8 7 7 7 7 6 6 5 6 6 5 5 5 7
5 4 5 4 4 4 4 5 5 5 6 6 6 5 5 5 5 6 7 8 7 6 6 6 6 6 6 5 5 4 5 4 4 5 6 6 6 6 6 7 7 7 8 8 7 7 7 7 7 8 8 10 11 11 11 11 11 11 10 9 9 8 8 8 8 8 8 9 10 9 9 8 7 7 6 5 6 5 5 7 6 5 5 5 7
6 5 4 4 4 4 4 5 5 5 5 5 6 6 5 6 5 6 8 8 8 9 8 8 7 8 8 7 6 5 4 4 4 4 5 5 6 6 7 7 8 7 6 6 7 7 8 7 7 6 6 7 8 9 11 12 12 12 10 9 9 8 8 8 7 7 8 8 8 8 8 7 6 7 6 5 5 4 5 6 5 4 5 5 5
5 4 4 4 4 3 4 5 4 4 5 4 5 4 4 5 4 5 6 6 6 7 8 8 8 10 11 9 8 7 6 5 6 6 6 6 5 5 6 7 7 7 6 6 7 7 7 7 7 6 6 6 7 7 8 7 8 8 7 8 8 7 6 7 6 5 7 8 7 6 6 7 6 6 6 6 5 5 5 5 4 4 4 5 6
7 6 5 5 5 3 3 3 4 4 4 3 4 4 4 4 3 3 3 3 4 4 4 5 5 6 8 10 10 10 10 9 8 8 8 7 6 5 5 5 5 4 4 5 6 7 6 6 6 6 6 5 6 6 6 5 4 4 4 6 6 5 4 5 5 6 7 7 7 7 6 6 7 6 6 6 5 5 6 4 4 4 4 5 7
13 10 7 6 6 6 5 3 2 3 3 3 3 3 3 4 4 4 4 3 4 5 4 3 3 3 3 5 6 7 8 9 9 10 11 10 10 8 7 7 6 5 4 5 5 5 5 4 5 6 6 6 5 5 5 6 5 5 5 6 6 7 7 7 8 8 7 6 7 8 8 7 7 6 6 5 4 5 5 5 6 6 6 6 7
15 14 12 10 8 8 8 6 4 3 3 4 4 4 5 5 5 6 6 6 6 6 6 6 6 6 4 4 4 4 4 5 5 7 9 11 12 11 10 9 8 8 8 8 7 7 6 5 5 5 5 5 5 6 6 5 5 5 6 6 7 8 8 7 7 6 5 7 9 9 9 9 7 7 6 5 5 5 4 5 7 8 7 7 8
9 12 14 14 13 12 11 9 7 6 5 5 5 6 7 7 8 8 7 6 6 6 6 7 7 8 7 6 6 5 5 5 4 4 5 7 9 10 10 10 10 10 10 10 10 9 7 6 6 6 5 3 4 5 5 4 3 4 4 4 4 4 4 4 5 4 5 8 10 10 10 10 10 10 9 8 8 8 6 5 7 9 9 7 8
4 6 9 12 13 14 14 12 10 8 8 7 7 7 8 7 8 8 7 6 6 6 5 6 7 7 8 8 7 7 7 5 5 6 6 6 6 7 8 8 9 9 9 10 9 9 9 9 9 9 8 7 7 6 6 6 5 4 4 4 3 4 5 5 4 3 4 6 7 8 9 10 11 10 9 9 9 8 8 8 8 10 10 7 4
2 2 4 6 6 9 13 14 12 10 9 8 8 7 7 9 9 9 10 8 7 7 6 6 8 8 9 9 9 10 8 6 6 6 6 7 7 7 8 8 8 8 8 8 8 8 8 8 9 9 9 10 10 9 9 9 8 7 7 6 5 4 5 5 3 2 4 5 6 6 6 7 9 9 7 7 7 8 8 8 7 8 8 7 4
2 2 3 3 1 4 10 12 12 12 11 10 12 11 9 10 11 10 11 11 9 10 9 9 9 9 9 9 9 10 10 8 7 7 7 9 10 10 11 12 12 11 10 10 10 9 9 8 8 8 8 8 9 9 10 10 10 9 8 8 8 7 7 6 5 5 5 6 7 7 5 5 8 9 7 5 5 5 6 5 5 6 6 7 7
3 4 4 4 4 3 6 11 11 9 10 10 11 13 12 10 11 10 10 11 11 11 10 10 10 9 8 9 9 10 11 10 9 8 9 10 12 13 13 11 8 6 6 7 7 7 8 7 7 6 6 7 7 8 9 9 9 8 8 8 8 8 8 7 6 5 4 6 8 9 8 7 8 9 9 8 6 5 5 5 5 6 7 7 8
6 12 7 1 5 6 2 8 12 7 7 11 10 12 12 9 10 10 9 9 8 8 9 9 8 7 7 7 9 10 12 12 11 10 8 9 10 11 10 7 3 2 2 2 2 3 6 7 7 6 5 5 5 7 8 10 10 9 8 8 8 8 8 8 8 7 5 5 6 6 7 8 8 7 7 8 9 8 7 7 8 7 8 8 7
-0 11 10 -2 0 6 -0 1 10 9 4 7 10 9 7 7 9 9 7 8 7 6 8 8 7 7 8 7 7 8 10 11 12 12 10 9 8 8 7 4 1 1 1 -0 -0 2 4 3 2 1 2 1 1 2 3 5 9 12 12 10 9 8 8 8 9 9 8 7 6 4 4 6 7 6 6 7 8 9 9 8 8 9 8 8 7
3 4 12 6 0 7 4 -2 4 8 5 6 6 3 4 6 6 4 3 5 6 6 6 5 5 6 7 7 5 4 6 7 8 9 9 8 7 7 6 4 2 2 1 0 1 1 -1 -2 -1 0 1 1 1 3 3 2 2 6 10 13 13 12 10 9 9 9 9 10 9 6 4 4 7 8 7 5 4 4 5 5 5 6 6 5 5
10 6 13 14 10 16 14 3 1 4 7 10 6 3 6 8 5 3 1 -0 2 4 3 3 3 2 2 1 1 1 2 3 5 6 7 7 6 5 4 3 2 2 2 3 4 3 3 4 3 -1 -2 -1 2 3 3 5 7 6 5 5 6 7 8 9 9 8 8 9 10 10 8 6 7 9 8 8 5 2 1 2 3 3 4 5 5
19 19 16 15 15 20 17 8 7 8 9 13 10 3 3 6 6 6 3 1 4 5 4 5 6 4 1 -1 0 1 -0 -0 1 2 3 4 4 4 4 4 3 3 4 5 7 7 7 5 1 -2 1 8 11 6 -1 -0 5 8 6 3 2 3 4 7 11 13 10 8 8 8 9 9 8 8 8 8 8 6 3 4 5 4 5 7 6
30 27 21 17 17 22 20 8 3 3 4 5 2 -3 -0 5 9 9 6 5 8 9 10 12 12 10 8 6 7 8 6 4 3 2 4 5 4 4 5 5 5 5 4 4 6 7 5 3 1 1 3 8 12 11 6 2 0 2 5 4 4 5 2 0 5 11 12 13 12 8 7 9 9 9 9 9 9 9 7 6 7 7 8 7 5
28 24 26 29 29 33 35 23 12 14 18 14 7 6 10 11 11 12 10 7 9 12 14 14 14 14 12 12 14 14 12 13 12 8 5 3 2 3 3 4 6 6 6 6 5 4 3 3 2 3 4 6 8 11 13 11 8 5 5 5 7 10 7 1 -1 0 4 14 21 15 7 6 9 9 9 10 10 9 9 8 7 6 6 5 4
19 16 13 16 17 18 21 20 17 20 26 25 19 15 13 9 8 10 9 8 10 12 12 10 10 10 10 12 15 16 16 18 21 19 13 8 7 8 7 7 6 4 5 5 4 6 11 13 13 15 17 17 15 15 16 18 19 14 3 2 10 13 10 7 5 1 -1 4 16 21 14 6 7 9 9 10 10 9 9 9 7 6 4 4 6
14 4 -9 -6 5 11 11 12 13 11 11 14 12 8 6 5 6 9 11 12 11 9 8 8 8 9 11 9 8 9 14 16 18 20 21 21 22 20 15 12 8 5 6 6 5 5 6 6 9 12 16 19 19 20 21 20 21 16 5 4 11 12 8 9 9 7 3 -2 -0 13 19 10 5 8 9 9 9 8 8 7 4 4 5 6 9
13 4 -0 6 15 17 13 11 12 10 10 10 9 8 9 9 9 10 10 10 7 5 6 8 6 6 10 10 6 6 9 9 7 9 11 15 19 21 19 17 13 10 9 7 5 3 1 3 7 13 23 25 16 15 22 22 16 15 19 22 16 7 6 9 8 7 10 7 0 6 17 17 12 9 7 7 8 7 5 5 4 4 6 8 12
5 7 10 12 11 11 11 11 10 11 12 12 10 10 10 9 9 11 10 8 7 9 10 9 7 6 8 9 9 7 5 5 7 8 8 8 9 12 15 17 19 21 20 20 20 16 12 13 14 17 24 21 8 7 18 24 20 20 29 35 28 19 19 19 12 7 9 14 12 10 12 16 17 13 6 5 6 6 5 4 3 4 8 11 11
6 9 9 8 7 8 10 9 8 10 10 8 6 6 7 7 7 8 8 7 6 7 6 5 5 6 5 6 7 7 7 8 9 9 9 8 7 8 11 12 14 16 16 18 19 15 13 14 10 4 2 7 21 27 12 1 8 15 15 18 19 18 18 16 12 13 14 16 17 13 11 16 20 15 8 4 3 5 6 6 6 7 10 12 12
7 8 7 6 6 5 4 3 4 5 4 1 -0 2 6 8 7 7 7 7 6 5 5 4 3 3 3 3 4 4 4 5 6 7 9 10 9 10 11 8 6 4 3 6 7 8 13 17 11 4 -1 4 27 38 12 -8 3 13 11 10 8 5 10 12 11 14 17 17 15 8 4 10 15 14 11 8 8 8 7 8 11 14 13 12 10
6 6 5 4 3 4 4 5 6 5 4 4 4 5 6 5 4 3 4 5 6 7 7 7 6 6 6 5 5 5 5 5 5 5 6 7 8 9 11 10 8 8 7 10 11 11 14 15 9 5 3 -3 -4 -3 -9 -10 -0 2 4 10 9 7 13 18 15 11 6 5 10 10 5 3 6 9 10 9 10 12 11 8 11 15 15 12 7
4 4 3 4 4 4 3 4 6 7 7 7 7 6 6 4 3 3 3 5 6 6 6 7 7 7 8 7 6 7 6 6 8 8 8 8 7 7 9 10 11 12 10 10 12 10 11 16 14 8 6 1 -9 -15 -11 0 8 6 5 9 12 14 16 15 14 16 11 4 5 9 11 9 5 4 9 12 12 11 11 11 12 15 14 9 3
6 6 5 5 6 5 5 5 5 5 6 7 7 7 7 6 5 5 6 6 6 5 6 6 6 7 8 9 8 9 8 7 7 7 8 9 8 7 8 8 8 9 9 8 9 8 5 7 11 10 9 10 7 2 2 5 8 7 6 5 5 12 16 15 14 16 15 11 8 7 10 14 11 5 4 8 6 1 -0 3 6 9 10 6 3
6 6 6 6 6 5 5 4 4 4 4 4 5 6 6 6 6 6 6 6 6 6 5 5 6 5 6 6 5 4 4 3 2 2 2 4 5 6 7 7 5 4 5 4 6 8 7 5 5 7 8 9 8 7 6 5 3 4 7 8 4 3 5 9 13 13 11 12 15 12 8 8 10 7 2 1 0 -1 1 3 4 6 9 8 6
4 5 6 7 7 7 7 6 5 6 5 5 5 6 5 5 5 6 6 6 6 6 5 5 5 4 3 3 1 -1 -1 -1 -1 0 1 2 3 3 3 5 5 4 4 5 4 4 5 5 4 4 4 5 5 6 7 9 10 13 16 17 17 16 12 8 9 13 13 13 16 16 8 3 5 8 6 4 5 6 8 11 11 9 8 6 5
4 4 3 3 4 5 6 6 6 6 5 6 7 6 6 6 6 6 6 6 6 6 5 5 5 4 3 3 2 1 3 3 2 3 3 3 4 4 3 4 4 4 4 5 5 5 5 5 5 6 6 5 6 6 6 6 8 11 12 10 11 17 20 13 7 9 13 15 18 18 10 2 1 4 5 6 11 14 16 16 14 9 4 2 2
9 9 9 8 7 6 6 5 6 6 7 7 7 8 8 8 7 6 7 7 7 7 7 6 6 6 6 6 7 6 6 6 6 7 7 6 5 5 5 5 5 5 5 5 6 8 8 6 4 4 5 6 6 6 6 5 5 5 6 4 2 4 8 12 12 10 8 9 14 20 19 11 7 9 12 14 17 20 19 15 11 8 6 4 4
12 13 14 14 15 14 14 13 11 10 9 8 9 9 10 10 10 10 10 9 8 8 8 8 8 8 7 7 8 8 7 7 7 7 7 7 7 6 6 6 6 5 5 6 6 6 7 7 8 7 7 7 5 4 4 4 6 6 6 7 8 5 2 5 8 7 3 0 3 11 17 17 15 14 13 9 10 13 13 12 12 11 8 7 6
15 14 14 15 15 16 17 17 17 17 16 14 13 12 11 10 11 11 11 12 11 11 11 11 10 10 10 9 9 8 8 8 8 8 8 8 8 6 6 6 6 6 5 4 4 4 3 4 5 6 7 8 7 7 7 5 6 8 9 9 9 7 3 2 3 5 7 8 7 6 7 9 10 8 5 5 9 13 12 10 8 6 4 4 3
10 10 10 9 8 8 8 8 8 9 10 11 12 12 11 10 10 9 9 9 10 11 11 12 11 11 12 12 12 12 11 10 9 9 9 9 10 9 8 8 7 8 7 7 6 5 4 4 3 3 4 5 6 7 8 7 7 7 7 7 7 7 7 9 9 8 9 9 8 6 6 6 8 11 14 16 16 10 3 -1 -0 2 2 2 1
6 6 6 5 4 4 4 3 3 3 3 4 5 6 7 8 9 9 9 8 7 8 8 9 10 10 10 10 10 11 12 12 11 10 10 11 11 11 11 11 10 10 9 9 9 9 8 7 6 5 3 3 3 4 5 7 9 8 7 7 7 7 8 8 7 6 7 9 8 7 6 5 6 9 11 8 2 -1 -1 1 4 6 6 5 5
7 7 7 7 7 7 6 6 6 6 5 6 6 5 6 6 6 8 9 9 8 8 7 7 7 8 8 8 8 8 9 11 11 11 11 11 11 11 11 11 11 11 10 10 10 10 10 10 10 10 9 7 5 5 4 5 7 8 9 9 9 7 6 4 1 -1 1 5 8 9 8 7 5 3 0 -5 -9 -7 0 4 5 6 6 6 7
7 8 8 8 9 10 10 11 11 10 10 10 9 8 8 8 7 6 7 7 7 8 8 8 8 7 7 7 6 6 6 7 8 9 9 9 10 11 11 11 11 11 11 11 11 10 10 10 10 10 11 11 10 9 7 6 5 5 5 7 8 7 6 4 2 -0 -2 -3 -1 2 5 6 5 6 6 3 1 2 4 4 5 6 6 6 5
9 9 9 10 10 10 10 10 11 12 12 12 13 13 13 13 13 12 11 10 9 8 8 8 8 9 9 8 7 6 5 5 5 5 5 5 6 7 8 9 10 11 11 11 12 12 12 12 12 11 11 12 12 12 11 10 9 8 6 5 6 7 7 6 6 6 6 4 2 1 -0 -1 -1 1 2 2 2 2 2 2 2 3 2 3 4
8 8 8 8 8 7 8 8 8 8 8 9 10 10 11 11 12 13 13 13 13 13 12 11 10 10 9 10 10 10 8 8 8 6 5 5 5 4 4 5 6 8 10 11 12 13 13 13 14 14 13 13 12 13 13 13 13 12 12 11 10 10 10 9 8 7 8 10 11 10 8 8 8 8 8 7 7 6 5 4 5 5 6 7 8
6 6 6 6 6 7 6 6 6 7 7 7 8 8 8 8 8 8 9 10 10 11 12 12 12 12 12 11 12 12 12 12 12 11 10 10 9 8 7 6 5 5 7 8 9 11 11 12 12 12 13 13 13 12 12 13 13 13 13 14 14 14 13 13 12 11 9 7 6 5 5 6 6 7 9 11 11 11 10 10 11 11 11 10 9
2 3 4 4 5 6 6 6 6 6 6 6 6 6 7 7 8 8 8 8 8 8 9 10 10 11 11 11 11 12 13 13 13 14 14 13 13 12 11 11 10 8 7 8 8 8 8 9 9 9 9 10 11 11 12 12 13 13 13 13 13 14 14 14 14 14 14 12 10 9 8 7 5 3 3 3 3 3 3 3 3 3 3 3 3
3 3 4 4 5 6 7 8 9 9 9 9 8 7 8 8 8 8 8 8 9 9 9 9 9 9 10 10 10 11 11 11 12 13 13 12 13 13 12 12 12 12 11 10 9 8 8 8 8 9 9 9 8 9 9 9 9 10 10 11 12 12 13 13 13 14 15 15 16 17 17 16 16 15 14 12 11 10 10 10 10 10 10 11 11
7 7 7 8 8 8 8 9 9 9 10 11 11 11 11 10 9 9 9 9 9 9 9 9 10 11 11 11 10 9 10 11 11 12 12 12 12 12 12 12 12 12 12 12 11 9 9 8 8 8 8 9 9 8 8 8 8 8 9 9 9 10 10 11 11 11 11 12 14 15 15 16 16 16 16 16 16 15 15 15 15 14 14 14 13
12 12 12 12 12 11 12 12 12 11 12 12 12 12 13 12 12 12 11 10 10 10 10 10 10 11 11 11 10 11 12 11 9 9 11 11 10 9 10 11 12 12 12 13 14 14 12 11 11 10 9 8 9 9 9 9 10 10 10 10 10 10 10 10 10 11 12 13 14 14 14 14 14 14 14 14 14 14 14 13 13 13 13 13 13
12 12 13 14 14 15 15 15 16 16 16 16 16 16 17 17 17 16 15 15 14 14 13 12 12 11 11 10 11 11 11 11 14 18 19 17 16 16 16 16 15 14 13 13 15 16 16 15 14 13 12 13 13 12 13 13 14 14 14 14 14 13 13 12 12 12 13 13 12 12 12 12 13 13 14 15 15 15 15 15 15 15 16 16 16
13 14 16 16 16 17 16 15 15 15 14 14 14 14 15 16 17 17 18 18 18 18 19 19 18 17 15 14 14 12 10 11 15 18 20 23 26 29 30 30 30 29 29 27 25 24 23 22 21 18 16 15 15 15 15 15 15 15 15 15 15 15 15 14 14 15 14 14 14 14 14 14 13 13 13 13 13 14 14 14 15 15 15 16 16
16 17 16 15 13 11 10 10 11 12 13 13 13 12 12 12 12 12 12 13 13 15 17 18 19 20 21 20 18 17 17 18 18 15 13 15 18 18 17 19 22 23 24 23 21 19 19 20 22 23 22 20 19 17 16 15 14 14 14 13 13 13 14 15 16 16 15 15 15 16 16 16 16 17 17 17 17 17 16 16 16 15 15 14 13
19 15 11 9 10 14 21 27 31 34 36 36 35 33 31 28 24 20 18 15 13 13 12 12 14 16 17 18 19 19 17 17 17 15 12 11 12 11 8 8 9 10 11 13 12 12 15 18 19 20 21 21 20 18 16 15 15 14 13 13 13 15 16 16 17 17 18 18 18 17 17 16 15 14 12 10 9 9 8 8 8 8 8 8 9
10 6 7 16 29 39 45 47 49 50 50 49 47 46 44 42 40 37 33 30 27 23 19 16 15 15 16 21 28 33 32 28 25 19 9 3 4 8 11 12 12 11 11 11 9 7 10 12 13 11 11 10 9 9 10 10 10 10 9 8 9 10 10 10 9 9 9 8 5 5 5 5 4 4 4 5 6 8 8 8 8 8 8 9 9
5 9 22 39 49 49 43 38 36 35 35 35 34 34 34 35 37 36 35 35 34 32 30 28 25 22 20 19 17 17 20 24 26 25 18 7 -2 -9 -12 -10 -5 -1 4 11 16 15 12 9 8 9 10 11 12 14 15 16 16 16 14 13 11 10 9 9 9 8 8 9 9 11 14 15 16 17 19 19 20 21 21 20 20 18 17 17 17
Height
5923 5924 5926 5927 5928 5929 5930 5931 5932 5933 5933 5934 5935 5936 5937 5938 5938 5939 5939 5939 5940 5941 5941 5942 5942 5943 5943 5944 5944 5945 5946 5946 5947 5947 5947 5947 5947 5947 5948 5948 5948 5948 5947 5947 5947 5947 5947 5947 5947 5946 5946 5946 5946 5946 5946 5946 5946 5946 5945 5945 5945 5944 5944 5944 5943 5943 5943 5943 5943 5942 5941 5941 5940 5940 5940 5940 5939 5939 5939 5938 5938 5936 5935 5934 5933
5921 5922 5923 5925 5926 5927 5929 5930 5931 5932 5932 5933 5934 5935 5936 5937 5937 5938 5938 5939 5939 5940 5940 5941 5941 5942 5942 5943 5944 5944 5945 5945 5946 5946 5947 5947 5947 5947 5947 5947 5947 5947 5946 5946 5946 5946 5946 5946 5946 5946 5946 5946 5945 5945 5945 5945 5945 5945 5945 5944 5944 5944 5944 5943 5943 5943 5942 5942 5942 5941 5941 5940 5939 5939 5939 5939 5938 5938 5938 5937 5937 5936 5934 5934 5933
5918 5920 5921 5923 5924 5925 5927 5928 5929 5930 5931 5932 5933 5934 5935 5936 5936 5937 5937 5938 5938 5939 5939 5940 5940 5941 5941 5942 5943 5943 5943 5944 5944 5945 5945 5946 5946 5946 5946 5946 5946 5946 5946 5945 5945 5945 5945 5945 5945 5945 5945 5945 5945 5945 5945 5944 5944 5944 5944 5944 5944 5943 5943 5943 5943 5942 5942 5942 5941 5941 5940 5940 5939 5939 5939 5938 5937 5937 5937 5937 5936 5935 5934 5933 5932
5916 5918 5919 5920 5922 5924 5925 5926 5928 5929 5929 5930 5931 5932 5933 5934 5935 5935 5936 5937 5937 5938 5938 5939 5939 5940 5940 5941 5941 5942 5942 5942 5943 5943 5944 5944 5944 5945 5945 5945 5945 5945 5945 5945 5945 5945 5945 5944 5944 5944 5944 5944 5944 5944 5944 5944 5943 5943 5943 5943 5943 5943 5942 5942 5942 5942 5942 5941 5940 5940 5940 5939 5939 5938 5938 5938 5937 5936 5936 5935 5935 5934 5933 5932 5932
5914 5916 5917 5918 5920 5921 5923 5924 5925 5926 5927 5928 5929 5930 5931 5932 5933 5934 5935 5936 5936 5937 5937 5937 5938 5938 5939 5939 5940 5940 5940 5941 5941 5941 5942 5942 5943 5943 5944 5944 5944 5944 5944 5944 5944 5944 5944 5944 5943 5943 5943 5943 5943 5943 5943 5943 5942 5942 5942 5942 5942 5942 5941 5941 5941 5941 5941 5940 5940 5939 5939 5939 5938 5938 5937 5937 5936 5935 5935 5935 5934 5932 5931 5931 5931
5912 5913 5914 5916 5917 5919 5920 5921 5923 5923 5924 5925 5927 5928 5930 5930 5931 5932 5933 5934 5935 5935 5935 5936 5936 5936 5937 5937 5938 5938 5939 5939 5939 5940 5940 5940 5941 5941 5942 5942 5943 5943 5943 5943 5943 5943 5943 5942 5942 5942 5942 5942 5942 5942 5942 5941 5941 5941 5941 5941 5941 5940 5940 5940 5940 5940 5940 5939 5939 5939 5938 5938 5937 5937 5937 5936 5934 5934 5933 5934 5933 5932 5930 5929 5930
5911 5911 5912 5913 5915 5917 5919 5920 5921 5921 5922 5923 5925 5926 5928 5929 5929 5930 5931 5932 5932 5933 5933 5933 5934 5934 5934 5935 5935 5936 5937 5937 5937 5938 5938 5939 5939 5940 5940 5941 5941 5941 5941 5942 5942 5942 5941 5941 5941 5941 5941 5941 5941 5940 5940 5940 5940 5940 5940 5940 5939 5939 5939 5939 5939 5939 5938 5938 5938 5937 5937 5937 5937 5936 5936 5935 5933 5932 5931 5931 5932 5931 5929 5927 5928
5909 5909 5910 5911 5913 5914 5916 5918 5919 5920 5921 5922 5923 5924 5926 5926 5927 5928 5929 5929 5930 5930 5930 5931 5931 5932 5932 5933 5933 5934 5934 5935 5935 5935 5936 5936 5937 5937 5938 5938 5939 5939 5939 5940 5940 5940 5940 5940 5940 5940 5940 5940 5939 5939 5939 5939 5938 5938 5938 5938 5938 5938 5938 5938 5938 5937 5937 5937 5937 5936 5936 5936 5935 5935 5934 5933 5932 5931 5930 5929 5929 5930 5929 5927 5926
5906 5907 5908 5910 5910 5911 5912 5914 5916 5917 5918 5920 5921 5922 5923 5924 5925 5926 5926 5927 5927 5927 5928 5928 5929 5929 5930 5930 5931 5931 5932 5932 5932 5933 5933 5934 5934 5935 5936 5936 5936 5937 5937 5937 5938 5938 5938 5938 5938 5938 5938 5938 5938 5937 5937 5937 5937 5937 5937 5936 5936 5936 5936 5936 5936 5936 5936 5936 5935 5935 5935 5934 5934 5933 5932 5931 5930 5929 5928 5927 5927 5927 5927 5926 5924
5902 5904 5906 5907 5907 5908 5909 5910 5912 5914 5915 5917 5918 5919 5920 5921 5922 5923 5924 5924 5925 5925 5925 5926 5926 5927 5927 5927 5928 5928 5928 5929 5929 5930 5930 5931 5932 5932 5933 5934 5934 5934 5935 5935 5935 5935 5935 5936 5936 5936 5936 5936 5935 5935 5935 5935 5935 5934 5934 5935 5934 5934 5934 5934 5934 5934 5934 5934 5934 5933 5933 5933 5932 5931 5930 5929 5928 5928 5927 5926 5925 5925 5925 5924 5923
5898 5900 5902 5904 5905 5905 5906 5907 5909 5910 5912 5913 5914 5916 5917 5918 5919 5920 5921 5922 5923 5923 5923 5924 5924 5924 5924 5924 5925 5925 5925 5926 5926 5927 5927 5928 5929 5930 5930 5931 5931 5932 5932 5932 5932 5932 5933 5933 5933 5933 5933 5933 5933 5933 5933 5932 5932 5932 5931 5932 5932 5932 5932 5932 5931 5931 5931 5931 5931 5931 5931 5931 5931 5930 5929 5927 5926 5926 5925 5924 5923 5923 5922 5922 5921
5896 5898 5901 5902 5902 5903 5904 5905 5906 5907 5908 5910 5911 5913 5915 5916 5916 5917 5918 5919 5920 5921 5921 5921 5921 5921 5921 5922 5922 5922 5922 5923 5923 5924 5925 5925 5926 5927 5927 5928 5929 5929 5929 5929 5929 5929 5930 5930 5930 5931 5931 5931 5931 5930 5930 5930 5929 5929 5929 5929 5929 5929 5929 5929 5929 5928 5928 5928 5928 5929 5929 5928 5928 5928 5927 5926 5925 5924 5924 5923 5922 5921 5921 5920 5919
5894 5897 5898 5897 5898 5900 5901 5902 5903 5905 5906 5907 5909 5911 5912 5913 5914 5915 5916 5917 5918 5919 5919 5919 5919 5920 5920 5920 5920 5920 5920 5921 5921 5921 5922 5923 5924 5924 5925 5925 5925 5926 5926 5926 5926 5926 5927 5927 5927 5928 5928 5928 5928 5928 5928 5928 5927 5927 5926 5926 5926 5926 5926 5926 5926 5926 5925 5925 5925 5926 5926 5926 5925 5926 5925 5924 5923 5922 5921 5921 5920 5920 5919 5918 5917
5890 5893 5892 5891 5893 5896 5897 5899 5900 5902 5904 5905 5907 5909 5910 5911 5912 5913 5914 5915 5916 5917 5917 5917 5917 5917 5917 5917 5917 5917 5918 5918 5918 5919 5920 5921 5921 5922 5922 5922 5922 5923 5923 5923 5923 5923 5923 5924 5924 5924 5924 5924 5924 5924 5924 5924 5924 5924 5924 5923 5923 5923 5923 5923 5922 5922 5922 5922 5922 5922 5923 5923 5923 5923 5923 5922 5921 5920 5919 5918 5918 5918 5917 5916 5915
5883 5887 5887 5887 5889 5892 5894 5896 5898 5899 5901 5903 5904 5906 5907 5908 5909 5910 5911 5913 5914 5914 5914 5913 5914 5914 5915 5915 5915 5915 5915 5915 5915 5916 5917 5917 5918 5919 5919 5919 5919 5920 5920 5920 5920 5920 5920 5920 5920 5921 5921 5920 5920 5920 5920 5920 5920 5920 5920 5920 5920 5920 5920 5919 5919 5919 5919 5919 5919 5919 5919 5920 5920 5920 5920 5919 5919 5918 5917 5916 5915 5915 5915 5914 5913
5879 5881 5882 5883 5885 5888 5890 5893 5894 5896 5898 5900 5902 5903 5904 5905 5905 5905 5906 5908 5909 5910 5909 5908 5909 5910 5912 5913 5912 5912 5912 5912 5913 5913 5914 5914 5915 5915 5916 5916 5917 5917 5917 5917 5917 5917 5917 5917 5917 5918 5918 5917 5917 5916 5916 5916 5916 5916 5916 5916 5916 5916 5916 5916 5916 5916 5916 5916 5915 5915 5915 5915 5916 5916 5916 5916 5915 5914 5914 5913 5912 5912 5912 5911 5911
5876 5877 5878 5879 5882 5884 5886 5888 5890 5892 5894 5896 5898 5900 5901 5901 5901 5901 5902 5904 5905 5906 5906 5905 5905 5907 5908 5909 5908 5908 5909 5909 5910 5910 5911 5912 5912 5913 5913 5913 5913 5914 5914 5914 5914 5914 5914 5914 5914 5914 5913 5913 5913 5913 5912 5912 5911 5912 5912 5912 5911 5912 5912 5911 5911 5911 5912 5912 5912 5911 5911 5911 5911 5911 5912 5912 5911 5910 5910 5909 5909 5908 5908 5908 5907
5872 5874 5875 5876 5878 5881 5883 5885 5886 5888 5891 5893 5894 5895 5896 5896 5897 5898 5900 5901 5902 5903 5903 5903 5902 5903 5904 5904 5904 5904 5905 5906 5907 5907 5908 5909 5909 5909 5910 5910 5910 5910 5910 5910 5910 5910 5910 5910 5909 5909 5908 5908 5907 5907 5907 5907 5906 5906 5907 5907 5907 5907 5907 5907 5907 5907 5907 5907 5907 5907 5907 5906 5906 5907 5907 5907 5907 5906 5906 5905 5905 5905 5904 5904 5904
5870 5871 5872 5873 5875 5877 5879 5882 5884 5886 5888 5890 5890 5891 5891 5892 5893 5895 5896 5897 5897 5898 5899 5899 5899 5899 5899 5900 5900 5900 5901 5902 5903 5903 5904 5905 5905 5906 5906 5906 5907 5907 5906 5906 5905 5905 5905 5905 5904 5904 5903 5902 5902 5901 5901 5901 5901 5901 5901 5902 5902 5902 5902 5902 5902 5902 5902 5902 5902 5903 5903 5902 5901 5902 5902 5902 5902 5902 5901 5901 5901 5900 5900 5900 5900
5868 5869 5870 5871 5873 5875 5877 5879 5881 5882 5884 5885 5886 5887 5888 5889 5890 5891 5892 5893 5893 5894 5895 5895 5895 5896 5896 5896 5896 5896 5896 5896 5897 5898 5899 5900 5901 5901 5902 5902 5902 5902 5902 5902 5901 5901 5901 5901 5900 5899 5899 5898 5897 5896 5895 5895 5895 5895 5895 5896 5897 5897 5897 5897 5897 5898 5898 5898 5898 5898 5898 5898 5897 5897 5897 5897 5897 5897 5897 5896 5896 5896 5896 5896 5896
5866 5867 5869 5870 5872 5874 5875 5876 5877 5879 5880 5881 5883 5884 5885 5886 5887 5888 5889 5889 5890 5891 5891 5891 5892 5892 5892 5892 5892 5892 5892 5892 5893 5894 5894 5895 5895 5896 5896 5896 5897 5897 5897 5897 5897 5897 5897 5896 5895 5895 5895 5894 5892 5890 5889 5890 5890 5890 5890 5891 5891 5891 5891 5892 5892 5893 5893 5894 5894 5894 5894 5893 5893 5893 5893 5892 5892 5892 5892 5892 5892 5892 5892 5892 5892
5865 5866 5867 5869 5870 5872 5873 5874 5875 5876 5877 5878 5879 5881 5882 5883 5884 5884 5885 5886 5887 5888 5888 5887 5888 5888 5888 5887 5888 5888 5889 5889 5889 5890 5890 5890 5890 5890 5890 5891 5891 5891 5891 5892 5892 5893 5892 5891 5891 5890 5889 5888 5887 5885 5883 5883 5883 5884 5885 5885 5886 5886 5886 5887 5887 5888 5890 5890 5890 5890 5890 5889 5888 5888 5888 5888 5887 5887 5887 5887 5887 5887 5887 5887 5888
5864 5864 5865 5867 5869 5870 5871 5871 5872 5873 5874 5875 5876 5877 5878 5879 5881 5881 5882 5882 5883 5883 5883 5884 5885 5885 5884 5884 5885 5885 5885 5885 5885 5885 5885 5885 5885 5885 5885 5886 5886 5885 5886 5886 5887 5887 5887 5886 5886 5885 5884 5884 5882 5879 5878 5878 5878 5878 5879 5880 5880 5880 5881 5882 5883 5884 5885 5886 5885 5885 5884 5884 5883 5884 5883 5883 5882 5882 5882 5883 5882 5882 5882 5882 5883
5860 5862 5863 5865 5865 5866 5867 5868 5869 5870 5871 5872 5874 5874 5875 5876 5877 5878 5878 5878 5878 5878 5879 5880 5881 5881 5881 5881 5881 5881 5881 5881 5881 5881 5881 5881 5881 5881 5881 5881 5881 5881 5881 5881 5881 5881 5881 5882 5881 5880 5880 5880 5878 5875 5875 5876 5875 5874 5874 5874 5875 5875 5876 5877 5878 5879 5879 5880 5879 5879 5879 5878 5878 5879 5879 5878 5877 5877 5878 5877 5877 5877 5878 5878 5878
5857 5859 5860 5861 5862 5863 5864 5865 5866 5867 5869 5870 5871 5871 5871 5872 5873 5873 5874 5875 5875 5875 5875 5876 5876 5877 5877 5877 5877 5877 5877 5877 5877 5877 5877 5877 5877 5877 5877 5877 5877 5876 5876 5876 5876 5876 5876 5876 5876 5875 5875 5875 5874 5873 5873 5873 5871 5870 5870 5870 5870 5871 5872 5872 5873 5873 5874 5874 5873 5873 5873 5873 5873 5873 5873 5873 5873 5873 5872 5871 5872 5873 5873 5873 5873
5855 5856 5858 5859 5860 5861 5862 5863 5864 5865 5866 5867 5867 5868 5868 5869 5869 5869 5870 5870 5871 5871 5872 5872 5872 5872 5872 5872 5872 5872 5872 5872 5873 5873 5873 5873 5873 5873 5873 5873 5872 5872 5872 5871 5871 5871 5871 5871 5871 5870 5870 5870 5870 5870 5869 5868 5868 5868 5868 5868 5867 5866 5866 5867 5868 5868 5869 5870 5869 5867 5867 5867 5867 5867 5867 5867 5867 5867 5866 5866 5867 5868 5868 5868 5869
5852 5853 5855 5856 5857 5858 5859 5860 5861 5862 5863 5863 5864 5865 5865 5865 5866 5866 5866 5866 5866 5867 5867 5867 5867 5867 5868 5868 5868 5867 5867 5867 5867 5868 5868 5868 5868 5868 5868 5868 5867 5867 5867 5867 5867 5866 5866 5866 5866 5866 5865 5864 5865 5864 5864 5863 5864 5864 5864 5863 5863 5862 5861 5861 5862 5862 5863 5863 5863 5862 5861 5861 5861 5861 5861 5862 5862 5862 5861 5861 5862 5863 5863 5863 5864
5849 5850 5851 5852 5853 5855 5856 5857 5857 5858 5859 5859 5860 5860 5861 5861 5861 5861 5861 5861 5861 5862 5862 5862 5862 5862 5862 5863 5863 5863 5863 5863 5863 5863 5863 5863 5863 5863 5863 5863 5862 5862 5862 5862 5862 5862 5862 5862 5862 5862 5861 5859 5859 5859 5858 5858 5859 5859 5859 5859 5858 5857 5856 5856 5856 5856 5856 5856 5856 5856 5856 5855 5855 5855 5856 5856 5856 5856 5856 5856 5856 5857 5857 5857 5858
5846 5847 5847 5848 5849 5850 5851 5852 5853 5853 5854 5854 5855 5855 5856 5856 5856 5856 5856 5856 5856 5856 5856 5856 5857 5857 5857 5857 5857 5857 5857 5858 5858 5858 5858 5858 5858 5858 5858 5858 5857 5857 5857 5856 5856 5856 5857 5857 5857 5857 5856 5855 5854 5853 5853 5852 5853 5853 5853 5853 5852 5852 5851 5851 5851 5851 5851 5851 5851 5851 5850 5850 5850 5850 5850 5850 5850 5850 5850 5850 5850 5851 5851 5851 5851
5842 5842 5843 5844 5844 5845 5846 5847 5847 5848 5848 5849 5849 5849 5850 5850 5850 5850 5850 5850 5850 5850 5850 5850 5851 5851 5851 5851 5852 5852 5852 5852 5852 5852 5852 5852 5852 5852 5852 5852 5852 5852 5851 5851 5850 5850 5851 5851 5851 5851 5850 5849 5848 5847 5847 5847 5847 5847 5846 5846 5846 5846 5846 5846 5846 5846 5846 5846 5846 5846 5846 5845 5845 5845 5845 5845 5844 5844 5844 5844 5844 5844 5844 5844 5845
5837 5837 5838 5838 5839 5840 5841 5841 5842 5842 5843 5843 5843 5843 5843 5844 5844 5844 5844 5844 5844 5844 5844 5844 5844 5844 5845 5845 5845 5845 5846 5846 5846 5845 5845 5845 5846 5846 5845 5846 5846 5846 5845 5845 5845 5844 5844 5844 5844 5844 5844 5844 5843 5842 5841 5841 5841 5841 5841 5840 5840 5840 5840 5840 5840 5840 5840 5840 5841 5841 5841 5841 5840 5840 5840 5839 5839 5838 5838 5837 5837 5837 5838 5838 5838
5832 5832 5833 5834 5834 5835 5835 5836 5836 5837 5837 5838 5838 5838 5838 5838 5838 5838 5838 5838 5838 5838 5838 5837 5837 5838 5838 5838 5838 5838 5838 5839 5839 5838 5838 5839 5839 5839 5839 5839 5839 5839 5839 5839 5838 5838 5837 5837 5837 5837 5837 5837 5837 5837 5836 5836 5835 5835 5835 5835 5835 5835 5835 5834 5834 5834 5834 5834 5834 5835 5835 5834 5834 5834 5834 5833 5833 5832 5832 5831 5831 5831 5831 5831 5831
5828 5828 5828 5829 5829 5830 5830 5830 5831 5831 5831 5831 5831 5831 5831 5832 5832 5831 5831 5831 5831 5831 5831 5831 5831 5831 5831 5831 5831 5831 5831 5831 5830 5830 5831 5831 5831 5831 5831 5831 5831 5831 5831 5831 5831 5831 5831 5830 5830 5829 5829 5830 5830 5830 5830 5829 5829 5829 5829 5829 5829 5829 5829 5828 5828 5828 5828 5828 5828 5828 5828 5828 5828 5827 5827 5827 5826 5826 5826 5825 5825 5825 5825 5824 5824
5824 5824 5824 5824 5824 5824 5824 5825 5825 5825 5825 5825 5825 5825 5825 5825 5825 5825 5824 5824 5824 5823 5823 5823 5823 5823 5823 5824 5823 5823 5822 5822 5822 5822 5822 5823 5823 5823 5823 5823 5823 5823 5823 5824 5824 5824 5823 5823 5823 5822 5822 5822 5822 5822 5822 5823 5823 5823 5823 5823 5823 5822 5822 5822 5822 5822 5822 5822 5822 5821 5821 5821 5821 5821 5820 5820 5819 5819 5819 5818 5818 5818 5817 5817 5817
5819 5819 5819 5819 5819 5819 5819 5819 5819 5819 5819 5819 5819 5819 5818 5818 5818 5817 5817 5817 5816 5816 5815 5815 5815 5815 5815 5816 5815 5815 5814 5814 5814 5814 5814 5814 5814 5814 5815 5814 5814 5815 5815 5815 5815 5815 5815 5815 5815 5815 5815 5815 5814 5814 5814 5815 5815 5815 5816 5816 5816 5816 5816 5816 5815 5815 5815 5816 5815 5815 5815 5814 5814 5813 5813 5812 5812 5812 5811 5811 5810 5810 5810 5809 5808
5814 5814 5814 5814 5814 5813 5813 5813 5813 5813 5813 5812 5812 5812 5812 5812 5811 5811 5810 5810 5809 5808 5808 5807 5807 5807 5807 5807 5807 5806 5806 5806 5806 5806 5806 5805 5805 5806 5806 5806 5806 5806 5806 5806 5806 5806 5806 5806 5806 5807 5807 5807 5807 5807 5807 5807 5807 5807 5807 5808 5808 5808 5808 5808 5808 5807 5807 5808 5808 5808 5807 5807 5806 5806 5805 5805 5804 5804 5803 5803 5802 5801 5801 5800 5800
5809 5809 5809 5809 5808 5808 5807 5807 5807 5806 5806 5805 5805 5805 5804 5804 5804 5804 5803 5803 5802 5801 5800 5800 5799 5799 5798 5798 5798 5798 5797 5796 5797 5797 5797 5797 5797 5797 5797 5797 5797 5797 5797 5797 5797 5797 5797 5797 5797 5798 5798 5798 5798 5799 5799 5799 5799 5799 5799 5799 5799 5799 5799 5799 5799 5799 5799 5799 5799 5799 5799 5798 5798 5798 5797 5797 5796 5795 5795 5794 5794 5793 5792 5791 5791
5803 5803 5803 5803 5802 5802 5801 5801 5800 5799 5799 5798 5798 5797 5797 5796 5796 5796 5796 5795 5795 5794 5793 5793 5792 5791 5791 5791 5790 5789 5788 5787 5787 5787 5787 5787 5787 5787 5788 5788 5788 5787 5787 5787 5787 5787 5787 5788 5788 5788 5788 5789 5789 5789 5790 5790 5790 5790 5790 5791 5791 5791 5791 5791 5791 5790 5790 5790 5790 5790 5789 5789 5789 5789 5788 5788 5787 5786 5786 5785 5784 5784 5783 5782 5781
5796 5796 5796 5796 5795 5795 5794 5794 5793 5792 5792 5791 5791 5790 5789 5788 5788 5787 5787 5787 5786 5786 5785 5785 5784 5783 5783 5784 5783 5781 5780 5779 5778 5778 5778 5778 5778 5778 5778 5778 5778 5778 5777 5777 5778 5778 5778 5778 5779 5779 5779 5779 5780 5780 5780 5780 5781 5781 5781 5781 5782 5782 5782 5782 5782 5782 5781 5781 5781 5781 5781 5780 5780 5780 5780 5779 5778 5777 5776 5775 5775 5774 5773 5773 5772
5790 5789 5789 5788 5788 5787 5787 5786 5785 5784 5783 5783 5783 5782 5781 5780 5779 5779 5779 5778 5777 5776 5776 5776 5775 5775 5775 5775 5774 5773 5772 5771 5770 5770 5769 5769 5769 5769 5768 5768 5768 5768 5768 5768 5768 5768 5768 5769 5769 5769 5769 5770 5770 5770 5771 5771 5771 5771 5771 5772 5772 5772 5772 5772 5772 5772 5772 5772 5772 5771 5771 5771 5771 5770 5770 5769 5769 5768 5767 5766 5765 5765 5764 5763 5762
5783 5782 5781 5780 5780 5779 5778 5777 5776 5775 5774 5774 5773 5772 5771 5770 5770 5770 5769 5769 5768 5767 5766 5766 5765 5765 5765 5764 5764 5763 5763 5762 5761 5760 5760 5760 5760 5760 5759 5759 5759 5758 5758 5758 5758 5758 5759 5759 5759 5759 5760 5760 5760 5760 5761 5761 5761 5762 5762 5762 5762 5762 5762 5762 5762 5762 5762 5762 5762 5761 5761 5761 5760 5760 5759 5759 5758 5758 5757 5756 5755 5754 5754 5753 5752
5775 5774 5773 5772 5771 5770 5769 5767 5766 5765 5764 5763 5762 5761 5760 5760 5759 5759 5759 5758 5758 5757 5757 5756 5756 5756 5756 5755 5754 5753 5752 5751 5750 5750 5750 5750 5750 5750 5750 5750 5749 5749 5749 5748 5748 5749 5749 5749 5749 5750 5750 5750 5751 5751 5751 5752 5752 5752 5752 5752 5752 5752 5752 5752 5752 5752 5751 5751 5751 5751 5751 5751 5750 5749 5749 5748 5747 5747 5746 5745 5745 5744 5743 5743 5742
5767 5765 5764 5763 5761 5760 5758 5757 5755 5754 5753 5752 5751 5750 5749 5748 5747 5747 5747 5747 5746 5746 5745 5745 5745 5745 5745 5744 5743 5743 5742 5740 5739 5739 5739 5739 5739 5739 5739 5739 5739 5739 5739 5739 5739 5739 5740 5740 5740 5740 5741 5741 5742 5742 5742 5742 5742 5742 5742 5742 5742 5742 5742 5741 5741 5741 5741 5741 5741 5741 5741 5740 5740 5739 5738 5738 5737 5737 5736 5735 5735 5734 5733 5732 5732
5758 5756 5754 5753 5751 5749 5747 5746 5745 5743 5742 5740 5739 5738 5737 5736 5736 5735 5734 5734 5734 5733 5733 5733 5733 5734 5734 5733 5733 5732 5731 5729 5728 5727 5727 5727 5727 5728 5728 5728 5728 5729 5729 5729 5730 5730 5730 5730 5731 5731 5731 5732 5732 5732 5733 5733 5733 5733 5733 5733 5732 5732 5731 5731 5731 5731 5731 5732 5731 5731 5730 5730 5729 5729 5728 5727 5727 5726 5726 5725 5724 5724 5723 5722 5721
5748 5746 5745 5742 5740 5738 5736 5735 5733 5732 5731 5729 5728 5726 5725 5724 5723 5722 5722 5721 5721 5721 5721 5721 5721 5722 5721 5721 5722 5721 5718 5716 5716 5716 5715 5716 5716 5716 5717 5717 5717 5718 5718 5719 5720 5720 5720 5721 5721 5722 5722 5722 5722 5723 5723 5723 5724 5724 5724 5723 5723 5722 5721 5721 5721 5722 5722 5722 5722 5721 5720 5720 5719 5718 5718 5717 5717 5716 5715 5714 5714 5713 5712 5711 5710
5739 5736 5734 5732 5729 5727 5725 5723 5721 5719 5718 5717 5715 5714 5713 5711 5710 5710 5709 5708 5708 5708 5708 5708 5709 5709 5709 5709 5710 5709 5706 5704 5704 5704 5704 5704 5705 5706 5706 5706 5706 5707 5708 5708 5709 5709 5710 5711 5711 5712 5712 5712 5712 5713 5713 5714 5714 5714 5714 5713 5713 5712 5712 5712 5712 5713 5713 5713 5712 5711 5710 5710 5709 5708 5708 5707 5706 5706 5705 5704 5703 5703 5702 5701 5700
5728 5725 5723 5720 5718 5716 5713 5711 5708 5707 5705 5703 5702 5701 5700 5699 5697 5696 5696 5696 5695 5695 5696 5696 5696 5697 5697 5697 5697 5697 5696 5695 5695 5694 5694 5694 5695 5695 5695 5695 5696 5696 5697 5697 5698 5699 5700 5700 5701 5701 5702 5702 5702 5703 5704 5704 5704 5704 5704 5704 5703 5702 5702 5703 5703 5704 5703 5703 5702 5701 5701 5700 5699 5699 5698 5697 5697 5696 5695 5694 5694 5693 5692 5691 5690
5718 5715 5712 5709 5707 5704 5701 5698 5695 5693 5691 5689 5688 5687 5686 5685 5684 5683 5683 5683 5683 5683 5684 5684 5684 5685 5685 5685 5685 5685 5685 5685 5685 5685 5686 5687 5687 5687 5687 5687 5687 5687 5688 5688 5689 5690 5690 5691 5691 5691 5692 5692 5693 5693 5694 5694 5694 5694 5694 5694 5693 5693 5694 5694 5694 5693 5693 5693 5692 5692 5691 5690 5690 5689 5689 5688 5687 5686 5686 5685 5684 5683 5682 5681 5680
5708 5705 5702 5698 5695 5691 5687 5683 5680 5677 5675 5673 5673 5672 5671 5670 5669 5669 5668 5669 5670 5671 5671 5672 5673 5674 5675 5675 5675 5675 5675 5675 5675 5676 5678 5678 5678 5678 5678 5678 5678 5679 5680 5680 5680 5681 5681 5681 5682 5682 5682 5683 5684 5684 5685 5685 5685 5685 5684 5684 5684 5685 5685 5685 5684 5684 5684 5684 5683 5683 5682 5682 5681 5680 5680 5679 5678 5678 5677 5676 5675 5674 5673 5672 5671
5700 5696 5692 5688 5683 5678 5673 5670 5666 5663 5661 5659 5658 5657 5656 5656 5655 5654 5654 5655 5657 5658 5658 5659 5661 5663 5665 5666 5666 5666 5665 5664 5665 5667 5667 5667 5667 5668 5669 5670 5670 5670 5671 5672 5672 5672 5673 5673 5673 5673 5674 5674 5675 5675 5676 5676 5676 5675 5675 5675 5676 5676 5676 5676 5676 5675 5675 5675 5675 5674 5674 5673 5672 5671 5671 5670 5669 5668 5667 5666 5665 5664 5663 5662 5661
5691 5687 5682 5678 5673 5669 5665 5661 5657 5654 5652 5650 5648 5647 5646 5645 5644 5643 5643 5643 5644 5646 5647 5648 5650 5653 5655 5657 5658 5657 5656 5655 5656 5657 5656 5656 5658 5660 5661 5661 5662 5662 5663 5663 5664 5664 5664 5665 5665 5665 5665 5666 5666 5666 5667 5667 5667 5666 5666 5666 5667 5666 5666 5666 5666 5666 5666 5665 5665 5664 5664 5663 5662 5661 5660 5659 5659 5658 5657 5656 5655 5654 5652 5651 5650